{"data":{"norad_id":68480,"epoch":"2026-05-25T03:24:43.366176Z","epoch_age_seconds":60206,"freshness":"FRESH","line1":"1 68480U 26067BS  26145.14216859  .00002538  00000+0  25106-3 0  9995","line2":"2 68480  97.7610 103.8485 0004066  14.2560 345.8774 14.92760074  8298","mean_motion":14.92760074,"eccentricity":0.0004066,"inclination_deg":97.761,"raan_deg":103.8485,"arg_perigee_deg":14.256,"mean_anomaly_deg":345.8774,"bstar":0.00025106,"rev_number":829,"period_min":96.465602549335,"perigee_km":586.50098993221,"apogee_km":592.16693731983,"semimajor_km":6967.470963626,"source":"CELESTRAK","updated_at":"2026-05-25T13:38:07.851992Z"}}